Weather History for Tomahawk, WI

Change the Weather History Date:

Wednesday, January 2, 2013

  Actual Average (KRHI) Record (KRHI)
Temperature  
Mean Temperature 16 °F 13 °F  
Max Temperature 19 °F 22 °F 42 °F (1998)
Min Temperature 12 °F 4 °F -29 °F (1974)
Degree Days  
Heating Degree Days 50 52  
Month to date heating degree days 104  
Since 1 July heating degree days 3730  
Cooling Degree Days 0 0  
Month to date cooling degree days 0  
Year to date cooling degree days 0  
Moisture  
Dew Point 11 °F    
Average Humidity 79    
Maximum Humidity 93    
Minimum Humidity 68    
Precipitation  
Precipitation 0.00 in 0.04 in 0.83 in (2000)
Month to date precipitation 0.08  
Year to date precipitation 0.08  
Snow  
Snow 0.00 in - 8.30 in (1911)
Month to date snowfall  
Since 1 July snowfall  
Snow Depth -    
Sea Level Pressure  
Sea Level Pressure 29.96 in    
Wind  
Wind Speed 2 mph (South)    
Max Wind Speed 7 mph    
Max Gust Speed -    
Visibility 8 miles    
Events Snow    
T = Trace of Precipitation, MM = Missing Value Source: NWS Daily Summary

Daily Weather History Graph

Daily Weather History Graph

Search for Another Location

Airport:

Trip Planner

Search our weather history database for the weather conditions in past years. The results will help you decide how hot, cold, wet, or windy it might be!

Date:

Astronomy

Jan. 02, 2013 Rise Set
Actual Time 7:39 AM CST 4:27 PM CST
Civil Twilight 7:05 AM CST 5:01 PM CST
Nautical Twilight 6:27 AM CST 5:39 PM CST
Astronomical Twilight 5:52 AM CST 6:15 PM CST
Moon 10:18 PM CST (1/2) 10:04 AM CST (1/2)
Length of Visible Light 9h 56m
Length of Day
8h 48m
Waning Gibbous, 75% of the Moon is Illuminated
Jan 2
Waning Gibbous
Jan 4
Last Quarter
Jan 11
New
Jan 18
First Quarter
Jan 26
Full

Hourly Weather History & Observations

Time (CST) Temp. Windchill Dew Point Humidity Pressure Visibility Wind Dir Wind Speed Gust Speed Precip Events Conditions
12:15 AM 12.2 °F 6.1 °F 8.6 °F 85% 29.98 in 10.0 mi SW 3.5 mph - N/A   Overcast
12:35 AM 12.2 °F 6.1 °F 8.6 °F 85% 29.97 in 10.0 mi WSW 3.5 mph - N/A   Overcast
12:55 AM 12.2 °F 6.1 °F 8.6 °F 85% 29.97 in 10.0 mi WSW 3.5 mph - N/A   Overcast
1:15 AM 12.2 °F 6.1 °F 8.6 °F 85% 29.97 in 7.0 mi WSW 3.5 mph - N/A   Overcast
1:35 AM 12.2 °F - 8.6 °F 85% 29.98 in 7.0 mi Calm Calm - N/A   Overcast
1:55 AM 12.2 °F - 8.6 °F 85% 29.97 in 10.0 mi Calm Calm - N/A   Overcast
2:15 AM 12.2 °F - 10.4 °F 92% 29.98 in 7.0 mi Calm Calm - N/A   Overcast
2:35 AM 12.2 °F - 10.4 °F 92% 29.98 in 7.0 mi Calm Calm - N/A   Overcast
2:55 AM 12.2 °F - 10.4 °F 92% 29.97 in 7.0 mi Calm Calm - N/A   Overcast
3:15 AM 12.2 °F - 10.4 °F 92% 29.98 in 7.0 mi Calm Calm - N/A   Overcast
3:35 AM 12.2 °F - 10.4 °F 92% 29.98 in 5.0 mi Calm Calm - N/A   Overcast
3:55 AM 12.2 °F - 10.4 °F 92% 29.98 in 5.0 mi Calm Calm - N/A   Overcast
4:15 AM 12.2 °F - 10.4 °F 92% 29.97 in 5.0 mi Calm Calm - N/A   Overcast
4:35 AM 12.2 °F - 10.4 °F 92% 29.98 in 5.0 mi Calm Calm - N/A   Overcast
4:55 AM 12.2 °F - 10.4 °F 92% 29.97 in 5.0 mi Calm Calm - N/A   Overcast
5:15 AM 12.2 °F 6.1 °F 10.4 °F 92% 29.98 in 5.0 mi South 3.5 mph - N/A   Overcast
5:35 AM 12.2 °F - 10.4 °F 92% 29.97 in 4.0 mi Calm Calm - N/A   Overcast
6:15 AM 14.0 °F - 10.4 °F 86% 29.97 in 5.0 mi Calm Calm - N/A   Overcast
6:35 AM 14.0 °F - 10.4 °F 86% 29.97 in 5.0 mi Calm Calm - N/A   Overcast
6:55 AM 14.0 °F 8.2 °F 10.4 °F 86% 29.97 in 5.0 mi SSE 3.5 mph - N/A   Overcast
7:15 AM 14.0 °F - 12.2 °F 93% 29.97 in 5.0 mi Calm Calm - N/A   Overcast
7:35 AM 14.0 °F - 12.2 °F 93% 29.97 in 7.0 mi Calm Calm - N/A   Overcast
7:55 AM 14.0 °F - 12.2 °F 93% 29.97 in 5.0 mi Calm Calm - N/A   Overcast
8:15 AM 14.0 °F - 12.2 °F 93% 29.97 in 4.0 mi Calm Calm - N/A Snow Light Snow
8:35 AM 14.0 °F 6.5 °F 12.2 °F 93% 29.97 in 3.0 mi SSE 4.6 mph - N/A Snow Light Snow
8:55 AM 14.0 °F - 12.2 °F 93% 29.97 in 2.0 mi Calm Calm - N/A Snow Light Snow
9:15 AM 14.0 °F 6.5 °F 12.2 °F 93% 29.98 in 2.5 mi South 4.6 mph - N/A Snow Light Snow
9:35 AM 15.8 °F 7.2 °F 12.2 °F 86% 29.98 in 2.5 mi SSE 5.8 mph - N/A Snow Light Snow
9:55 AM 15.8 °F - 12.2 °F 86% 29.98 in 3.0 mi Calm Calm - N/A Snow Light Snow
10:15 AM 15.8 °F 10.2 °F 12.2 °F 86% 29.98 in 3.0 mi SSE 3.5 mph - N/A Snow Light Snow
10:35 AM 17.6 °F 12.3 °F 12.2 °F 79% 29.97 in 3.0 mi SSE 3.5 mph - N/A Snow Light Snow
10:55 AM 17.6 °F 10.7 °F 12.2 °F 79% 29.97 in 7.0 mi SSE 4.6 mph - N/A Snow Light Snow
11:15 AM 19.4 °F 12.8 °F 12.2 °F 74% 29.96 in 10.0 mi SSE 4.6 mph - N/A   Overcast
11:35 AM 19.4 °F 10.4 °F 10.4 °F 68% 29.95 in 10.0 mi South 6.9 mph - N/A   Mostly Cloudy
11:55 AM 19.4 °F 12.8 °F 10.4 °F 68% 29.95 in 10.0 mi South 4.6 mph - N/A   Mostly Cloudy
12:15 PM 19.4 °F 11.5 °F 10.4 °F 68% 29.93 in 10.0 mi South 5.8 mph - N/A   Overcast
12:35 PM 19.4 °F 11.5 °F 10.4 °F 68% 29.93 in 10.0 mi SSE 5.8 mph - N/A   Overcast
12:55 PM 19.4 °F 11.5 °F 10.4 °F 68% 29.92 in 10.0 mi South 5.8 mph - N/A   Overcast
1:15 PM 19.4 °F 12.8 °F 10.4 °F 68% 29.92 in 10.0 mi SSE 4.6 mph - N/A   Overcast
1:35 PM 19.4 °F 12.8 °F 10.4 °F 68% 29.92 in 10.0 mi South 4.6 mph - N/A   Overcast
1:55 PM 19.4 °F 14.3 °F 10.4 °F 68% 29.92 in 10.0 mi SSE 3.5 mph - N/A   Overcast
2:15 PM 19.4 °F 14.3 °F 10.4 °F 68% 29.92 in 10.0 mi SSE 3.5 mph - N/A   Overcast
2:35 PM 19.4 °F 11.5 °F 10.4 °F 68% 29.92 in 10.0 mi SSE 5.8 mph - N/A   Overcast
2:55 PM 19.4 °F 12.8 °F 10.4 °F 68% 29.93 in 10.0 mi SSE 4.6 mph - N/A   Overcast
3:15 PM 19.4 °F 11.5 °F 10.4 °F 68% 29.93 in 10.0 mi South 5.8 mph - N/A   Overcast
3:35 PM 19.4 °F 12.8 °F 10.4 °F 68% 29.93 in 10.0 mi South 4.6 mph - N/A   Overcast
3:55 PM 19.4 °F 14.3 °F 10.4 °F 68% 29.94 in 10.0 mi South 3.5 mph - N/A   Overcast
4:15 PM 19.4 °F 14.3 °F 10.4 °F 68% 29.94 in 10.0 mi SSE 3.5 mph - N/A   Overcast
4:35 PM 19.4 °F 14.3 °F 10.4 °F 68% 29.94 in 10.0 mi SSE 3.5 mph - N/A   Overcast
4:55 PM 19.4 °F - 10.4 °F 68% 29.94 in 10.0 mi Calm Calm - N/A   Overcast
5:15 PM 19.4 °F - 10.4 °F 68% 29.95 in 10.0 mi Calm Calm - N/A   Overcast
5:35 PM 17.6 °F - 10.4 °F 73% 29.95 in 10.0 mi Calm Calm - N/A   Overcast
5:55 PM 17.6 °F - 10.4 °F 73% 29.95 in 10.0 mi Calm Calm - N/A   Overcast
6:35 PM 17.6 °F - 10.4 °F 73% 29.95 in 10.0 mi Calm Calm - N/A   Overcast
6:55 PM 17.6 °F - 10.4 °F 73% 29.95 in 10.0 mi Calm Calm - N/A   Overcast
7:15 PM 17.6 °F - 10.4 °F 73% 29.96 in 10.0 mi Calm Calm - N/A   Overcast
7:35 PM 17.6 °F - 10.4 °F 73% 29.96 in 10.0 mi Calm Calm - N/A   Overcast
7:55 PM 17.6 °F - 10.4 °F 73% 29.95 in 7.0 mi Calm Calm - N/A Snow Light Snow
8:15 PM 17.6 °F - 10.4 °F 73% 29.95 in 10.0 mi Calm Calm - N/A   Overcast
8:35 PM 17.6 °F - 10.4 °F 73% 29.95 in 10.0 mi Calm Calm - N/A   Overcast
8:55 PM 17.6 °F - 10.4 °F 73% 29.95 in 10.0 mi Calm Calm - N/A   Overcast
9:15 PM 17.6 °F - 10.4 °F 73% 29.95 in 10.0 mi Calm Calm - N/A   Overcast
9:35 PM 17.6 °F - 10.4 °F 73% 29.95 in 10.0 mi Calm Calm - N/A   Overcast
9:55 PM 17.6 °F - 10.4 °F 73% 29.95 in 10.0 mi Calm Calm - N/A   Overcast
10:15 PM 17.6 °F - 10.4 °F 73% 29.96 in 10.0 mi Calm Calm - N/A   Overcast
10:35 PM 17.6 °F - 10.4 °F 73% 29.95 in 10.0 mi Calm Calm - N/A   Overcast
10:55 PM 17.6 °F - 10.4 °F 73% 29.96 in 10.0 mi Calm Calm - N/A   Overcast
11:15 PM 17.6 °F 12.3 °F 10.4 °F 73% 29.96 in 10.0 mi West 3.5 mph - N/A   Overcast
11:35 PM 17.6 °F 12.3 °F 10.4 °F 73% 29.96 in 10.0 mi West 3.5 mph - N/A   Overcast
11:55 PM 17.6 °F 12.3 °F 10.4 °F 73% 29.95 in 10.0 mi West 3.5 mph - N/A   Overcast